EHI
0 0 0 0 0 0 0 0 0 0 0 0 0 0 0 0 0 0 0 0 0 0 0 0 0 0 0 0 0 0 0 0 0 0 0 0 0 0 0 0 0 0 0 0
0 0 0 0 0 0 0 0 0 0 0 0 0 0 0 0 0 0 0 0 0 0 0 0 0 0 0 0 0 0 0 0 0 0 0 0 0 0 0 0 0 0 0 0
0 0 0 0 0 0 0 0 0 0 0 0 0 0 0 0 0 0 0 0 0 0 0 0 0 0 0 0 0 0 0 0 0 0 0 0 0 0 0 0 0 0 0 0
0 0 0 0 0 0 0 0 0 0 0 0 0 0 0 0 0 0 0 0 0 0 0 0 0 0 0 0 0 0 0 0 0 0 0 0 0 0 0 0 0 0 0 0
0 0 0 0 0 0 0 0 0 0 0 0 0 0 0 0 0 0 0 0 0 0 0 0 0 0 0 0 0 0 0 0 0 0 0 0 0 0 0 0 0 0 0 0
0 0 0 0 0 0 0 0 0 0 0 0 0 0 0 0 0 0 0 0 0 0 0 0 0 0 0 0 0 0 0 0 0 0 0 0 0 0 0 0 0 0 0 0
0 0 0 0 0 0 0 0 0 0 0 0 0 0 0 0 0 0 0 0 0 0 0 0 0 0 0 0 0 0 0 0 0 0 0 0 0 0 0 0 0 0 0 0
0 0 0 0 0 0 0 0 0 0 0 0 0 0 0 0 0 0 0 0 0 0 0 0 0 0 0 0 0 0 0 0 0 0 0 0 0 0 0 0 0 0 0 0
0 0 0 0 0 0 0 0 0 0 0 0 0 0 0 0 0 0 0 0 0 0 0 0 0 0 0 0 0 0 0 0 0 0 0 0 0 0 0 0 0 0 0 0
0 0 0 0 0 0 0 0 0 0 0 0 0 0 0 0 0 0 0 0 0 0 0 0 0 0 0 0 0 0 0 0 0 0 0 0 0 0 0 0 0 0 0 0
0 0 0 0 0 0 0 0 0 0 0 0 0 0 0 0 0 0 0 0 0 0 0 0 0 0 0 0 0 0 0 0 0 0 0 0 0 0 0 0 0 0 0 0
0 0 0 0 0 0 0 0 0 0 0 0 0 0 0 0 0 0 0 0 0 0 0 0 0 0 0 0 0 0 0 0 0 0 0 0 0 0 0 0 0 0 0 0
0 0 0 0 0 0 0 0 0 0 0 0 0 0 0 0 0 0 0 0 0 0 0 0 0 0 0 0 0 0 0 0 0 0 0 0 0 0 0 0 0 0 0 0
0 0 0 0 0 0 0 0 0 0 0 0 0 0 0 0 0 0 0 0 0 0 0 0 0 0 0 0 0 0 0 0 0 0 0 0 0 0 0 0 0 0 0 0
0 0 0 0 0 0 0 0 0 0 0 0 0 0 0 0 0 0 0 0 0 0 0 0 0 0 0 0 0 0 0 0 0 0 0 0 0 0 0 0 0 0 0 0
0 0 0 0 0 0 0 0 0 0 0 0 0 0 0 0 0 0 0 0 0 0 0 0 0 0 0 0 0 0 0 0 0 0 0 0 0 0 0 0 0 0 0 0
0 0 0 0 0 0 0 0 0 0 0 0 0 0 0 0 0 0 0 0 0 0 0 0 0 0 0 0 0 0 0 0 0 0 0 0 0 0 0 0 0 0 0 0
0 0 0 0 0 0 0 0 0 0 0 0 0 0 0 0 0 0 0 0 0 0 0 0 0 0 0 0 0 0 0 0 0 0 0 0 0 0 0 0 0 0 0 0
0 0 0 0 0 0 0 0 0 0 0 0 0 0 0 0 0 0 0 0 0 0 0 0 0 0 0 0 0 0 0 0 0 0 0 0 0 0 0 0 0 0 0 0
0 0 0 0 0 0 0 0 0 0 0 0 0 0 0 0 0 0 0 0 0 0 0 0 0 0 0 0 0 0 0 0 0 0 0 0 0 0 0 0 0 0 0 0
0 0 0 0 0 0 0 0 0 0 0 0 0 0 0 0 0 0 0 0 0 0 0 0 0 0 0 0 0 0 0 0 0 0 0 0 0 0 0 0 0 0 0 0
0 0 0 0 0 0 0 0 0 0 0 0 0 0 0 0 0 0 0 0 0 0 0 0 0 0 0 0 0 0 0 0 0 0 0 0 0 0 0 0 0 0 0 0
0 0 0 0 0 0 0 0 0 0 0 0 0 0 0 0 0 0 0 0 0 0 0 0 0 0 0 0 0 0 0 0 0 0 0 0 0 0 0 0 0 0 0 0
0 0 0 0 0 0 0 0 0 0 0 0 0 0 0 0 0 0 0 0 0 0 0 0 0 0 0 0 0 0 0 0 0 0 0 0 0 0 0 0 0 0 0 0
0 0 0 0 0 0 0 0 0 0 0 0 0 0 0 0 0 0 0 0 0 0 0 0 0 0 0 0 0 0 0 0 0 0 0 0 0 0 0 0 0 0 0 0
0 0 0 0 0 0 0 0 0 0 0 0 0 0 0 0 0 0 0 0 0 0 0 0 0 0 0 0 0 0 0 0 0 0 0 0 0 0 0 0 0 0 0 0
0 0 0 0 0 0 0 0 0 0 0 0 0 0 0 0 0 0 0 0 0 0 0 0 0 0 0 0 0 0 0 0 0 0 0 0 0 0 0 0 0 0 0 0
Wind_Speed
7 7 4 7 11 6 8 8 9 10 11 13 11 9 8 7 7 7 7 6 8 9 8 7 6 6 6 6 5 5 5 6 7 6 6 6 7 7 7 7 7 6 5 4
5 5 5 9 13 12 10 10 10 12 16 12 12 8 8 10 9 9 9 8 7 7 7 7 7 6 6 6 6 6 6 7 6 5 5 6 6 7 7 7 6 6 6 5
4 5 6 8 9 7 6 6 7 13 18 12 9 10 11 10 9 9 9 6 5 6 6 6 6 6 7 7 5 6 7 6 6 6 6 6 6 6 7 7 7 6 5 4
2 2 6 8 2 2 5 8 7 12 16 13 11 11 8 7 8 8 6 3 5 5 4 3 2 3 5 4 5 6 7 7 6 6 7 6 6 7 7 5 5 5 4 4
4 4 7 6 3 2 3 6 4 15 18 10 5 3 5 4 3 2 1 4 5 6 6 5 4 2 2 2 3 4 5 6 6 6 6 6 7 6 5 5 4 3 3 4
4 4 3 3 9 8 1 6 16 20 18 10 0 0 5 1 5 7 8 7 7 6 7 7 5 6 7 4 2 1 3 5 5 6 6 7 6 5 4 4 5 5 3 3
4 3 2 6 13 8 8 10 19 17 15 9 4 4 2 4 6 7 7 7 6 7 7 5 4 6 7 5 4 3 3 2 2 3 5 5 4 5 6 6 5 5 4 2
1 2 2 8 9 7 5 9 11 12 14 10 6 3 3 5 6 7 7 6 6 6 6 4 4 5 5 3 3 3 3 3 2 1 1 1 3 4 6 6 5 4 2 1
5 2 4 6 4 3 5 9 9 12 14 12 6 3 2 3 4 5 5 5 4 6 5 3 3 3 3 1 2 3 4 3 2 2 2 3 3 4 3 3 3 3 2 1
8 7 13 10 3 6 7 9 10 10 11 11 7 2 2 4 4 4 4 4 4 5 4 2 1 0 1 1 1 2 3 2 1 2 3 4 3 2 2 2 2 2 2 1
8 11 11 6 7 9 12 13 12 12 10 9 7 3 5 5 5 4 4 3 4 4 3 2 2 2 2 2 2 2 2 2 2 2 3 3 3 2 1 1 2 2 1 2
7 8 11 17 14 11 13 14 13 14 15 13 7 4 6 6 5 5 4 4 3 3 3 2 2 2 2 3 4 3 2 1 1 1 2 3 3 4 7 5 5 3 1 1
10 14 15 18 17 12 10 12 14 12 10 12 9 2 5 5 5 5 5 5 5 5 4 3 1 1 2 4 4 4 3 2 1 1 2 2 2 3 2 4 6 7 7 5
11 11 12 14 14 12 10 11 12 11 8 6 6 2 3 4 4 5 6 6 5 4 4 3 2 1 3 4 4 4 3 3 3 2 2 2 2 2 1 1 1 2 5 8
11 12 13 17 17 13 9 8 10 10 9 8 7 4 3 6 7 8 6 5 4 4 4 3 3 3 4 5 5 4 3 2 2 2 2 2 2 2 1 2 2 2 2 3
19 16 14 14 14 12 9 8 9 9 8 9 8 7 6 8 7 6 5 6 6 6 6 5 5 4 5 5 5 3 3 5 4 2 2 2 2 2 2 2 3 2 2 1
18 18 19 19 17 15 11 9 9 8 8 9 9 9 6 6 6 6 6 7 6 5 5 5 5 5 6 6 5 3 3 3 5 3 2 2 2 3 3 3 3 2 1 1
15 14 14 15 15 15 14 12 10 10 9 8 8 7 4 7 10 10 8 6 4 4 5 5 5 6 6 6 4 3 3 2 2 2 2 2 3 3 3 2 2 2 1 1
14 16 16 15 14 12 13 13 12 11 10 7 7 7 6 8 9 6 6 6 6 6 5 6 10 8 7 6 6 3 3 3 2 1 1 3 3 3 2 2 1 1 2 1
13 17 17 17 15 13 14 13 13 12 11 7 7 7 6 6 7 6 7 7 6 5 5 8 8 7 6 6 7 3 3 3 3 2 3 3 3 3 2 2 2 2 2 1
14 18 18 18 18 16 15 14 12 13 11 7 7 8 7 6 6 6 6 6 5 5 7 11 7 6 6 6 7 4 4 4 3 3 3 3 3 2 2 2 2 2 1 1
13 15 18 17 17 17 16 14 12 12 11 8 8 8 6 5 6 6 6 5 6 10 7 6 6 9 9 8 4 4 4 4 4 3 3 3 2 2 2 3 2 2 2 2
12 13 16 16 16 16 15 13 13 12 10 8 8 8 7 6 6 6 6 4 6 12 8 6 10 15 14 7 4 4 4 5 4 4 3 3 3 3 3 4 3 3 3 3
13 14 16 16 15 14 15 15 14 12 10 7 6 6 4 4 4 3 3 10 13 13 7 10 16 17 13 5 4 4 4 4 4 4 4 3 3 3 4 4 4 3 3 3
13 13 14 16 15 12 12 14 14 12 12 8 6 3 3 4 4 4 6 9 14 13 8 13 18 16 8 5 5 5 4 4 5 4 4 4 3 4 4 4 3 3 3 2
11 11 11 12 12 11 10 10 11 10 10 9 6 3 1 2 5 6 6 8 11 12 9 8 8 9 6 6 5 5 4 5 5 4 4 4 4 4 4 4 4 3 3 3
9 9 9 11 10 10 10 10 11 11 9 8 6 3 2 3 5 7 8 8 8 8 8 7 6 6 6 6 5 5 4 4 4 4 4 4 3 4 4 4 3 3 3 4
Wind_Direction
251 264 265 262 269 236 205 211 214 236 238 247 251 254 263 268 273 283 282 255 217 200 196 194 192 196 201 209 200 188 195 214 223 208 196 190 187 188 185 187 192 190 198 215
292 292 292 275 269 260 242 237 242 257 263 250 249 254 264 268 271 276 275 259 223 195 186 192 196 199 203 208 197 188 205 221 225 204 191 190 186 179 181 191 195 190 201 213
270 307 334 281 256 245 242 243 241 263 271 269 255 247 247 256 263 260 267 260 208 185 184 186 190 195 210 213 185 192 216 224 214 200 197 195 183 177 185 189 188 193 198 202
253 329 253 251 269 255 269 270 267 283 287 276 250 250 251 245 245 255 259 226 174 152 136 129 158 201 218 211 195 201 215 225 220 208 208 197 188 193 194 186 188 190 192 196
183 219 275 314 360 330 312 293 4 337 328 310 257 258 281 246 219 216 126 113 104 102 102 89 71 74 132 190 215 221 229 234 234 225 218 203 200 201 190 178 175 166 175 185
182 186 235 327 318 314 255 317 349 342 335 324 283 251 282 35 93 93 91 93 97 96 90 79 64 74 79 73 75 284 271 256 244 233 226 218 201 180 173 167 163 156 158 174
202 203 283 340 327 2 45 328 325 327 327 319 275 253 297 83 89 95 93 88 87 85 82 83 89 87 80 70 53 359 339 327 278 239 231 225 190 161 158 158 154 148 144 161
222 170 89 4 0 25 333 302 310 326 336 328 318 354 57 81 98 99 95 87 87 91 87 72 67 82 78 51 15 23 37 39 30 10 258 199 159 147 152 153 143 130 116 90
310 300 354 331 324 15 328 319 324 329 336 339 338 349 64 103 106 106 110 107 100 105 94 64 49 81 105 353 5 35 48 47 45 45 37 71 110 124 129 135 130 131 129 165
306 309 316 304 311 327 329 324 318 316 322 343 329 284 180 157 147 139 128 125 121 118 118 129 161 150 222 255 69 57 45 33 46 68 65 61 76 113 142 172 157 144 152 212
271 286 297 287 327 330 327 328 326 322 322 330 328 269 208 195 176 162 145 140 137 143 159 191 224 252 239 195 151 105 74 52 45 67 92 90 80 79 155 172 161 150 186 207
287 307 304 301 311 322 318 321 321 321 325 330 324 259 207 202 185 164 156 152 155 176 203 230 250 278 238 180 156 132 107 71 56 79 96 107 106 89 60 64 64 79 124 182
294 302 292 288 292 294 296 304 308 307 309 319 325 266 193 192 184 166 163 169 186 205 218 232 281 331 142 153 150 143 146 153 129 106 105 116 120 116 100 54 54 52 46 50
308 314 300 294 290 290 287 295 298 299 303 319 340 344 186 187 177 182 191 197 195 201 211 214 219 181 156 148 144 144 149 156 142 136 131 131 132 130 133 135 74 36 37 51
308 319 308 301 294 287 284 293 302 309 320 340 0 350 225 207 203 204 200 181 175 200 216 208 202 190 157 146 144 150 153 148 128 119 124 127 127 123 125 132 119 102 82 66
312 318 331 335 326 313 299 295 298 303 315 331 338 330 261 228 224 206 184 170 178 209 216 208 209 187 155 145 144 150 159 151 134 120 107 102 101 102 102 109 113 113 104 79
316 323 332 335 332 325 310 293 284 287 300 312 313 314 280 221 216 214 203 195 201 214 210 207 204 165 150 148 152 156 146 133 123 109 101 99 94 97 108 116 123 127 143 192
305 307 312 312 313 315 312 304 291 285 284 288 293 302 266 211 215 215 204 182 186 223 228 212 180 152 148 150 154 152 142 133 127 129 123 111 102 97 102 105 115 119 98 113
319 318 317 317 318 316 311 306 296 287 282 278 280 283 254 225 225 215 172 164 187 219 227 190 167 151 150 161 157 150 147 142 133 118 110 119 108 102 106 113 111 117 127 116
330 324 322 324 327 328 321 312 301 288 277 265 270 279 265 233 213 189 173 191 205 201 175 163 154 149 151 159 154 145 149 146 139 124 109 112 116 119 123 120 109 105 110 112
335 331 330 330 329 332 328 317 304 286 276 260 252 261 262 242 197 175 176 211 218 169 159 159 152 148 146 150 148 141 144 138 132 128 127 125 123 123 121 106 92 92 89 80
332 332 330 328 327 331 331 325 314 294 277 262 251 252 250 228 192 186 200 200 169 160 153 154 150 154 152 143 135 142 141 132 123 118 117 119 117 114 110 105 90 74 64 57
327 329 328 325 323 322 324 327 329 315 286 263 253 245 231 209 179 174 201 190 158 160 153 156 159 156 148 137 140 146 141 135 130 126 121 114 110 109 107 103 98 93 85 76
325 329 327 323 321 322 329 333 330 323 305 281 261 244 212 187 194 191 142 150 156 150 149 158 156 152 142 136 140 137 132 128 126 123 119 113 108 104 106 109 107 101 96 92
319 323 325 326 326 325 325 327 329 333 336 328 318 298 217 176 166 157 147 154 154 145 142 160 158 148 138 135 136 133 130 131 131 130 127 125 123 116 113 114 116 115 110 102
311 314 315 312 309 312 319 326 329 330 327 322 319 321 279 134 125 127 136 145 145 140 139 142 142 136 131 132 134 136 133 131 126 125 133 135 135 128 124 124 123 118 110 97
302 306 310 312 315 317 319 321 325 323 315 302 291 274 221 146 130 135 140 143 140 136 134 133 132 130 129 131 133 134 131 127 125 123 123 124 128 130 134 135 129 111 96 90